Regional Weather Roundup
Issued by NWS Charleston, SC

Current Version | Previous Version | Graphics & Text | Print | Product List | Glossary On
Versions: 1 2 3 4 5 6 7 8 9 10 11 12 13 14 15 16 17 18 19 20 21 22 23 24 25 26 27 28 29 30 31 32 33 34 35 36 37 38 39 40 41 42 43 44 45 46 47 48 49 50
000 ASUS42 KCHS 231410 RWRCHS REGIONAL WEATHER ROUNDUP NATIONAL WEATHER SERVICE CHARLESTON SC 1000 AM EDT THU OCT 23 2014 NOTE: "FAIR" INDICATES FEW OR NO CLOUDS BELOW 12,000 FEET WITH NO SIGNIFICANT WEATHER AND/OR OBSTRUCTIONS TO VISIBILITY. NOT ALL STATIONS ARE QUALITY CONTROLLED BY THE NATIONAL WEATHER SERVICE. USE DATA WITH CAUTION...ESPECIALLY DEWPOINT OBSERVATIONS. SCZ027-030-031-034>040-042>050-231500- ...SOUTH CAROLINA... CITY SKY/WX TMP DP RH WIND PRES REMARKS N CHARLESTON SUNNY 59 45 59 N10 30.10R WATERFRONT PRK N/A 57 N/A N/A N10 N/A FORT JOHNSON NOT AVBL JOHNS ISLAND SUNNY 59 48 67 N8 30.10R PINOPOLIS NOT AVBL MONCKS CORNER FAIR 59 48 67 N7 30.10R SUMMERVILLE FAIR 55 46 71 N5 30.11R BEAUFORT MCAS SUNNY 58 45 62 N8 30.11R BEAUFORT ARPT FAIR 55 46 71 N8 30.11R HILTON HEAD IS NOT AVBL GEORGETOWN NOT AVBL WALTERBORO SUNNY 55 41 58 N7 30.12R ORANGEBURG SUNNY 53 42 66 NW5 30.11R BARNWELL FAIR 57 45 62 N5 30.12S AIKEN FAIR 55 45 67 NW6 30.14S MANNING FAIR 55 45 67 N8 30.09S KINGSTREE NOT AVBL COLUMBIA SUNNY 58 40 51 VRB6 30.11R SUMTER SUNNY 54 42 63 N8 30.09R FLORENCE SUNNY 56 42 59 N9 30.08R MYRTLE BEACH SUNNY 54 43 66 N9 30.06S N MYRTLE BEACH SUNNY 56 44 64 N10 30.05S $$ GAZ063-065-086>088-099>101-113>116-118-119-134-136>141-150-231500- ...GEORGIA... CITY SKY/WX TMP DP RH WIND PRES REMARKS SAVANNAH ARPT SUNNY 57 44 62 N7 30.13R HUNTER AAF SUNNY 57 45 64 N6 30.10R FORT STEWART SUNNY 55 45 68 CALM 30.11R STATESBORO NOT AVBL SYLVANIA SUNNY 61 51 70 NE6 30.14R CLAXTON FAIR 55 50 82 CALM 30.13R THOMSON SUNNY 51 49 91 CALM 30.18R AUGUSTA-BUSH SUNNY 53 42 66 VRB3 30.13R AUGUSTA-DANIEL SUNNY 55 41 59 N8 30.13R SWAINSBORO FAIR 59 45 58 MISG 30.14R VIDALIA SUNNY 55 45 67 NE8 30.13S ALMA SUNNY 56 44 64 VRB5 30.12R WAYCROSS SUNNY 58 49 71 E6 30.12R JESUP FAIR 59 48 67 E6 30.12S BRUNSWICK SUNNY 59 50 72 N3 30.11S SAINT SIMONS SUNNY 59 53 80 N8 30.10R $$ SCZ027-028-034-036>038-045-046-048>050-GAZ119-141-231500- ...LAKE AND SUPPLEMENTAL COASTAL OBSERVATIONS... STATION/POSITION TIME TEMP WIND PRES WAVE SWELL AIR SEA DIR/SP/G HT/PER HT/PER/DIR (UTC) (F) (DEG/KT/KT) (MB) (FT/S) (FT/S/D) UPR LAKE MARION NOT AVBL WINYAH BAY 1300 49 320/ 7 1018.0S LAKE MURRAY 1300 51 320/ 3/ 7 1019.3R ACE BASIN NERRS 1300 50 360/ 3 1018.0S FORT PULASKI 1400 56 350/ 5/ 7 1019.7S SAPELO ISLAND NOT AVBL $$ ANZ835-935-AMZ111-154-330-350-352-354-374-450-454-472-231500- ...C-MAN AND BUOY OBSERVATIONS... STATION/POSITION TIME TEMP WIND PRES WAVE SWELL AIR SEA DIR/SP/G HT/PER HT/PER/DIR (UTC) (F) (DEG/KT/KT) (MB) (FT/S) (FT/S/D) FOLLY BEACH CMAN 1300 57 350/ 11/ 15 1018.8S BUOY 41004 1400 62 78 340/ 6/ 10 1017.7R 4/ 5 3/ 5 BUOY 41008 1400 65 75 20/ 10/ 14 1018.5R 3/ 5 3/ 50/ 5 5E ST. MARYS GA 1400 76 N/A 3/ 5 FRYING PAN BUOY 1400 59 74 340/ 14/ 16 1017.4R 4/ 5 2/120/10 BUOY 41025 1300 59 310/ 27/ 33 1012.3R 7/ 6 2/ 40/ 9 CAPE LOOKOUT NC 1300 55 320/ 14/ 17 1015.1R BUOY 41002 1317 71 78 310/ 16/ 19 1014.8R 7/ 7 5/350/ 9 BUOY 41010 1400 73 81 30/ 14/ 16 1016.3R 4/ 7 3/360/ 7 BUOY 41012 NOT AVBL ST AUGUSTINE FL 1400 69 30/ 14/ 15 1018.4R CAPERS NEARSHORE NOT AVBL FRIPP NEARSHORE NOT AVBL $$

USA.gov is the U.S. government's official web portal to all federal, state and local government web resources and services.